Location: Powder Track
(41.8531°N, 72.3584°W)
Time: 14:16:48
(UTC+00:00)

Tiros 1 despin weight - Pass Details

Date: 28 July 2021
Orbit: 594 x 641 km, 48.2° (Epoch: 16 September)

Event Time Altitude Azimuth Distance (km) Brightness Sun altitude
Rises 02:12:07 0° 293° (WNW) 2,926 ? -18.4°
Reaches altitude 10° 02:14:37 10° 284° (WNW) 2,008 ? -18.7°
Maximum altitude 02:18:46 34° 220° (SW) 1,037 ? -19.2°
Enters shadow 02:19:49 30° 192° (SSW) 1,121 ? -19.3°
